(125696) = 2001 XG92 = 2003 FK83

Discovered at Socorro on 2001-12-10 by LINEAR.

Orbit

Orbit type: Main Belt

Note: WebGL enabled browser required.

epoch2023-09-13.0
epoch JD2460200.5
perihelion date2022-03-20.60522
perihelion JD2459659.10522
argument of perihelion (°)112.68462
ascending node (°)57.81882
inclination (°)4.94138
eccentricity0.0914185
perihelion distance (AU)2.2332359
Tisserand w.r.t. Jupiter3.5
ΔV w.r.t. Earth (km/sec)9.4
semimajor axis (AU)2.4579369
mean anomaly (°)138.47195
mean daily motion (°/day)0.25576890
aphelion distance (AU)2.683
period (years)3.85
P-vector [x]-0.98339319
P-vector [y]0.11808568
P-vector [z]0.13781731
Q-vector [x]-0.16620158
Q-vector [y]-0.89099416
Q-vector [z]-0.42250023
absolute magnitude16.45
phase slope0.15
uncertainty0
referenceMPEC 2023-X102
observations used610
oppositions17
arc length (days)8968
first opposition used1999
last opposition used2023
residual rms (arc-secs)0.70
perturbers coarse indicatorM-v
perturbers precise indicator003Ek
first observation date used1999-04-12.0
last observation date used2023-10-31.0
computer nameMPCLINUX
JD of orbit computation2456819.643898
perihelion JD uncertainty (days)1.2611E-04
argument of perihelion uncertainty (°)5.8253E-05
ascending node uncertainty (°)4.6386E-05
inclination uncertainty (°)4.8596E-06
eccentricity uncertainty 3.5160E-08
perihelion distance uncertainty (AU)9.0593E-08
Minimum Orbit Intersection Distances (in AU)
for orbit epoch: 2460200.5, reference: E2023-XA2
Mercury1.83425
Venus1.51389
Earth1.24278
Mars0.57934
Jupiter2.28537
Saturn6.58833
Uranus16.2181
Neptune27.1913

Observations

624 total observations over interval: 1999 04 12.22876 – 2023 10 31.224598
These data are available for download (format description).

Date (UT) J2000 RA J2000 Dec Magn Location Ref
1999 04 12.22876 12 26 03.34 +04 02 02.1 19.9   704 – Lincoln Laboratory ETS, New Mexico MPS 112151
1999 04 12.24597 12 26 02.44 +04 02 05.7 19.5   704 – Lincoln Laboratory ETS, New Mexico MPS 112151
1999 04 12.26309 12 26 01.52 +04 02 07.6 19.5   704 – Lincoln Laboratory ETS, New Mexico MPS 112151
1999 04 12.28020 12 26 00.34 +04 02 11.7 19.9   704 – Lincoln Laboratory ETS, New Mexico MPS 112151
2001 10 24.41378 04 34 42.48 +21 43 13.4 19.9   704 – Lincoln Laboratory ETS, New Mexico MPS 46861
2001 10 24.44655 04 34 41.63 +21 43 14.3 20.0   704 – Lincoln Laboratory ETS, New Mexico MPS 46861
2001 10 24.46308 04 34 41.09 +21 43 15.3 19.6   704 – Lincoln Laboratory ETS, New Mexico MPS 46861
2001 10 24.47946 04 34 40.64 +21 43 16.8 19.8   704 – Lincoln Laboratory ETS, New Mexico MPS 46861
2001 12 10.21947 03 51 13.46 +21 28 15.9 19.7   704 – Lincoln Laboratory ETS, New Mexico MPS 45228
2001 12 10.23494 03 51 12.46 +21 28 14.7 19.7   704 – Lincoln Laboratory ETS, New Mexico MPS 45228
2001 12 10.25029 03 51 11.63 +21 28 14.0 20.4   704 – Lincoln Laboratory ETS, New Mexico MPS 45228
2001 12 10.26554 03 51 10.66 +21 28 12.8 20.0   704 – Lincoln Laboratory ETS, New Mexico MPS 45228
2001 12 15.15675 03 46 39.23 +21 23 16.5 19.5   704 – Lincoln Laboratory ETS, New Mexico MPS 45228
2001 12 15.17184 03 46 38.40 +21 23 16.3 19.8   704 – Lincoln Laboratory ETS, New Mexico MPS 45228
2001 12 15.19125 03 46 37.38 +21 23 15.2 20.1   704 – Lincoln Laboratory ETS, New Mexico MPS 45228
2001 12 15.20670 03 46 36.56 +21 23 14.3 19.6   704 – Lincoln Laboratory ETS, New Mexico MPS 45228
2001 12 15.22180 03 46 35.72 +21 23 13.3 19.8   704 – Lincoln Laboratory ETS, New Mexico MPS 45228
2001 12 18.22055 03 44 05.81 +21 20 31.6 19.6   704 – Lincoln Laboratory ETS, New Mexico MPS 45228
2001 12 18.23570 03 44 04.96 +21 20 30.3 19.8   704 – Lincoln Laboratory ETS, New Mexico MPS 45228
2001 12 18.25085 03 44 04.26 +21 20 29.1 19.9   704 – Lincoln Laboratory ETS, New Mexico MPS 45228
2001 12 18.26599 03 44 03.42 +21 20 28.6 19.9   704 – Lincoln Laboratory ETS, New Mexico MPS 45228
2001 12 18.28135 03 44 02.71 +21 20 28.2 20.2   704 – Lincoln Laboratory ETS, New Mexico MPS 45228
2001 12 19.16742 03 43 21.34 +21 19 45.3 19.8   704 – Lincoln Laboratory ETS, New Mexico MPS 45228
2001 12 19.18302 03 43 20.56 +21 19 43.1 19.8   704 – Lincoln Laboratory ETS, New Mexico MPS 45228
2001 12 19.19818 03 43 19.83 +21 19 42.3 20.2   704 – Lincoln Laboratory ETS, New Mexico MPS 45228
2001 12 19.21335 03 43 19.10 +21 19 42.4 19.8   704 – Lincoln Laboratory ETS, New Mexico MPS 45228
2002 01 08.13409 03 33 58.87 +21 16 35.2 20.6 V 691 – Steward Observatory, Kitt Peak-Spacewatch MPS 46861
2002 01 08.15693 03 33 58.63 +21 16 35.7 20.7 V 691 – Steward Observatory, Kitt Peak-Spacewatch MPS 46861
2002 01 08.17902 03 33 58.39 +21 16 36.5 20.9 V 691 – Steward Observatory, Kitt Peak-Spacewatch MPS 46861
2003 03 26.34208 14 21 59.45 -09 06 36.0 19.1 R 699 – Lowell Observatory-LONEOS MPS 76400
2003 03 26.35989 14 21 58.80 -09 06 33.1   699 – Lowell Observatory-LONEOS MPS 76400
2003 03 26.37755 14 21 58.24 -09 06 32.0   699 – Lowell Observatory-LONEOS MPS 76400
2003 03 26.39533 14 21 57.59 -09 06 30.0   699 – Lowell Observatory-LONEOS MPS 76400
2003 03 27.46187 14 21 21.69 -09 04 24.6 19.9   644 – Palomar Mountain/NEAT MPS 76400
2003 03 27.47246 14 21 21.29 -09 04 24.1 19.5   644 – Palomar Mountain/NEAT MPS 76400
2003 03 27.48288 14 21 20.95 -09 04 22.3 19.4   644 – Palomar Mountain/NEAT MPS 76400
2003 03 30.35368 14 19 35.24 -08 58 19.5 18.7   704 – Lincoln Laboratory ETS, New Mexico MPS 76400
2003 03 30.36612 14 19 34.74 -08 58 16.0 19.2   704 – Lincoln Laboratory ETS, New Mexico MPS 76400
2003 03 30.37838 14 19 34.25 -08 58 15.4 18.9   704 – Lincoln Laboratory ETS, New Mexico MPS 76400
2003 03 30.39037 14 19 33.83 -08 58 12.5 19.0   704 – Lincoln Laboratory ETS, New Mexico MPS 76400
2003 03 31.28919 14 18 58.02 -08 56 09.6 20.0 V 703 – Catalina Sky Survey MPS 78388
2003 03 31.29891 14 18 57.58 -08 56 09.7 19.5 V 703 – Catalina Sky Survey MPS 78388
2003 03 31.30861 14 18 57.24 -08 56 09.1 19.2 V 703 – Catalina Sky Survey MPS 78388
2003 03 31.31839 14 18 56.88 -08 56 06.4 19.7 V 703 – Catalina Sky Survey MPS 78388
2003 04 26.37568 13 55 50.86 -07 46 31.2 19.8   608 – Haleakala-AMOS MPS 78388
2003 04 26.38674 13 55 50.19 -07 46 29.9 20.5   608 – Haleakala-AMOS MPS 78388
2003 04 26.39787 13 55 49.51 -07 46 28.1 20.3   608 – Haleakala-AMOS MPS 78388
2003 04 30.33358 13 52 07.51 -07 37 29.3 19.3   608 – Haleakala-AMOS MPS 78388
2003 04 30.34422 13 52 06.84 -07 37 29.2 19.9   608 – Haleakala-AMOS MPS 78388
2003 04 30.35492 13 52 06.27 -07 37 27.4 19.7   608 – Haleakala-AMOS MPS 78388
2003 05 05.22217 13 47 46.14 -07 28 21.7 19.5   704 – Lincoln Laboratory ETS, New Mexico MPS 78388
2003 05 05.23473 13 47 45.51 -07 28 22.1 19.6   704 – Lincoln Laboratory ETS, New Mexico MPS 78388
2003 05 05.24717 13 47 44.89 -07 28 20.1 19.8   704 – Lincoln Laboratory ETS, New Mexico MPS 78388
2003 05 05.25946 13 47 44.18 -07 28 18.0 19.8   704 – Lincoln Laboratory ETS, New Mexico MPS 78388
2003 05 25.15965 13 35 10.46 -07 22 24.1 20.6 V 291 – LPL/Spacewatch II MPS 80203
2003 05 25.18493 13 35 09.84 -07 22 26.0 20.2 V 291 – LPL/Spacewatch II MPS 80203
2003 05 25.22078 13 35 08.96 -07 22 28.5 20.0 V 291 – LPL/Spacewatch II MPS 80203
2004 08 21.59255 22 41 27.73 -16 49 31.0 19.9 R E12 – Siding Spring Survey MPS 112151
2004 08 21.60765 22 41 26.79 -16 49 35.3 19.4 R E12 – Siding Spring Survey MPS 112151
2004 08 21.62277 22 41 25.97 -16 49 40.1 19.4 R E12 – Siding Spring Survey MPS 112151
2004 08 21.63780 22 41 25.10 -16 49 45.4 19.6 R E12 – Siding Spring Survey MPS 112151
2005 11 21.35373 05 43 33.79 +25 48 16.4 20.1 V 691 – Steward Observatory, Kitt Peak-Spacewatch MPS 150654
2005 11 21.37108 05 43 32.96 +25 48 18.7 19.8 V 691 – Steward Observatory, Kitt Peak-Spacewatch MPS 150654
2005 11 21.38848 05 43 32.12 +25 48 21.0 20.0 V 691 – Steward Observatory, Kitt Peak-Spacewatch MPS 150654
2005 11 25.34476 05 40 13.82 +25 57 07.2   691 – Steward Observatory, Kitt Peak-Spacewatch MPS 151946
2005 11 25.36215 05 40 12.90 +25 57 08.3   691 – Steward Observatory, Kitt Peak-Spacewatch MPS 151946
2005 11 25.37941 05 40 11.89 +25 57 09.9   691 – Steward Observatory, Kitt Peak-Spacewatch MPS 151946
2005 12 04.27911 05 31 23.60 +26 14 19.2 19.4   704 – Lincoln Laboratory ETS, New Mexico MPS 153555
2005 12 04.29230 05 31 22.74 +26 14 21.2 19.8   704 – Lincoln Laboratory ETS, New Mexico MPS 153555
2005 12 04.30527 05 31 21.84 +26 14 22.6 19.8   704 – Lincoln Laboratory ETS, New Mexico MPS 153555
2005 12 04.31823 05 31 20.98 +26 14 23.4 20.2   704 – Lincoln Laboratory ETS, New Mexico MPS 153555
2005 12 05.25491 05 30 20.40 +26 15 55.9 19.9   704 – Lincoln Laboratory ETS, New Mexico MPS 153555
2005 12 05.26824 05 30 19.44 +26 15 57.8 20.0   704 – Lincoln Laboratory ETS, New Mexico MPS 153555
2005 12 05.28135 05 30 18.66 +26 15 58.7 20.0   704 – Lincoln Laboratory ETS, New Mexico MPS 153555
2005 12 05.29425 05 30 17.70 +26 16 00.4 20.3   704 – Lincoln Laboratory ETS, New Mexico MPS 153555
2005 12 28.25030 05 04 47.49 +26 35 08.4 18.9 V G96 – Mt. Lemmon Survey MPS 156474
2005 12 28.25884 05 04 46.95 +26 35 08.4 19.0 V G96 – Mt. Lemmon Survey MPS 156474
2005 12 28.26527 05 04 46.56 +26 35 08.4 18.8 V G96 – Mt. Lemmon Survey MPS 156474
2005 12 28.27199 05 04 46.16 +26 35 08.5 19.0 V G96 – Mt. Lemmon Survey MPS 156474
2007 04 09.41513 15 48 12.06 -17 51 37.9 20.9 V 691 – Steward Observatory, Kitt Peak-Spacewatch MPS 206710
2007 04 09.43275 15 48 11.71 -17 51 38.9 21.2 V 691 – Steward Observatory, Kitt Peak-Spacewatch MPS 206710
2007 04 09.45037 15 48 11.28 -17 51 39.5 21.0 V 691 – Steward Observatory, Kitt Peak-Spacewatch MPS 206710
2007 04 18.45333 15 43 37.63 -17 53 34.5 19.6 V G96 – Mt. Lemmon Survey MPS 207868
2007 04 18.45829 15 43 37.41 -17 53 34.5 19.3 V G96 – Mt. Lemmon Survey MPS 207868
2007 04 18.46319 15 43 37.23 -17 53 34.3 19.3 V G96 – Mt. Lemmon Survey MPS 207869
2007 04 18.46811 15 43 37.02 -17 53 34.4 19.4 V G96 – Mt. Lemmon Survey MPS 207869
